• In Latvia
  • List of Countries
  • For 7 days
  • Water Temperature
  • Satellite Maps
  • Weather Map
  • Weather Widgets
  • user-avatar
    Login

    Hourly Weather Eisenstadt

    Today, 22 July, Saturday

    Time Temperature Precipitation Wind Pressure Humidity
    00:00 +21°C° 0 mm 1 mps 721 mmHg 70%
    01:00 +20°C° 0 mm 1 mps 721 mmHg 73%
    02:00 +20°C° 0.1 mm 1 mps 721 mmHg 74%
    03:00 +20°C° 0.1 mm 1 mps 721 mmHg 75%
    04:00 +20°C° 0.1 mm 1 mps 721 mmHg 76%
    05:00 +21°C° 0 mm 1 mps 721 mmHg 73%
    06:00 +21°C° 0 mm 2 mps 721 mmHg 70%
    07:00 +23°C° 0 mm 2 mps 722 mmHg 65%
    08:00 +25°C° 0.6 mm 2 mps 722 mmHg 61%
    09:00 +27°C° 0.6 mm 2 mps 722 mmHg 56%
    10:00 +29°C° 0.6 mm 2 mps 722 mmHg 52%
    11:00 +30°C° 0.4 mm 2 mps 722 mmHg 47%
    12:00 +31°C° 0.4 mm 2 mps 722 mmHg 43%
    13:00 +32°C° 0.4 mm 2 mps 722 mmHg 39%
    14:00 +32°C° 0.2 mm 2 mps 722 mmHg 40%
    15:00 +32°C° 0.2 mm 1 mps 722 mmHg 41%
    16:00 +31°C° 0.2 mm 1 mps 721 mmHg 42%
    17:00 +30°C° 0.1 mm 1 mps 721 mmHg 48%
    18:00 +28°C° 0.1 mm 1 mps 721 mmHg 53%
    19:00 +27°C° 0.1 mm 1 mps 721 mmHg 58%
    20:00 +25°C° 0.4 mm 1 mps 721 mmHg 62%
    21:00 +24°C° 0.4 mm 2 mps 721 mmHg 67%
    22:00 +23°C° 0.4 mm 2 mps 722 mmHg 72%
    23:00 +21°C° 0.3 mm 2 mps 722 mmHg 75%

    Tomorrow, 23 July, Sunday

    Time Temperature Precipitation Wind Pressure Humidity
    00:00 +20°C° 0.3 mm 2 mps 722 mmHg 79%
    01:00 +20°C° 0.3 mm 2 mps 722 mmHg 82%
    02:00 +19°C° 0.3 mm 2 mps 722 mmHg 84%
    03:00 +19°C° 0.3 mm 2 mps 722 mmHg 85%
    04:00 +19°C° 0.3 mm 2 mps 722 mmHg 87%
    05:00 +20°C° 0.2 mm 2 mps 722 mmHg 82%
    06:00 +21°C° 0.2 mm 2 mps 722 mmHg 78%
    07:00 +24°C° 0.2 mm 2 mps 722 mmHg 74%
    08:00 +25°C° 0.4 mm 2 mps 722 mmHg 68%
    09:00 +26°C° 0.4 mm 3 mps 722 mmHg 63%
    10:00 +28°C° 0.4 mm 3 mps 723 mmHg 58%
    11:00 +29°C° 0.3 mm 3 mps 722 mmHg 54%
    12:00 +30°C° 0.3 mm 3 mps 722 mmHg 50%
    13:00 +31°C° 0.3 mm 3 mps 722 mmHg 46%
    14:00 +30°C° 0.4 mm 3 mps 722 mmHg 48%
    15:00 +29°C° 0.4 mm 3 mps 722 mmHg 50%
    16:00 +29°C° 0.4 mm 2 mps 722 mmHg 52%
    17:00 +28°C° 0.4 mm 2 mps 722 mmHg 57%
    18:00 +26°C° 0.4 mm 2 mps 722 mmHg 62%
    19:00 +25°C° 0.4 mm 2 mps 722 mmHg 67%
    20:00 +23°C° 0.7 mm 2 mps 722 mmHg 72%
    21:00 +21°C° 0.7 mm 2 mps 722 mmHg 76%
    22:00 +20°C° 0.7 mm 2 mps 722 mmHg 81%
    23:00 +19°C° 0.7 mm 2 mps 722 mmHg 84%

    Day after tomorrow, 24 July, Monday

    Time Temperature Precipitation Wind Pressure Humidity
    00:00 +19°C° 0.7 mm 2 mps 721 mmHg 86%
    01:00 +18°C° 0.7 mm 2 mps 721 mmHg 89%
    02:00 +18°C° 0 mm 2 mps 721 mmHg 88%
    03:00 +18°C° 0 mm 2 mps 721 mmHg 88%
    04:00 +18°C° 0 mm 2 mps 720 mmHg 88%
    05:00 +19°C° 0.4 mm 2 mps 720 mmHg 86%
    06:00 +19°C° 0.4 mm 2 mps 720 mmHg 84%
    07:00 +20°C° 0.4 mm 2 mps 720 mmHg 81%
    08:00 +20°C° 1.1 mm 2 mps 719 mmHg 81%
    09:00 +20°C° 1.1 mm 2 mps 719 mmHg 80%
    10:00 +20°C° 1.1 mm 2 mps 719 mmHg 79%
    11:00 +22°C° 0.8 mm 1 mps 718 mmHg 75%
    12:00 +23°C° 0.8 mm 1 mps 718 mmHg 70%
    13:00 +24°C° 0.8 mm 1 mps 717 mmHg 66%
    14:00 +24°C° 0.3 mm 1 mps 717 mmHg 65%
    15:00 +25°C° 0.3 mm 1 mps 716 mmHg 64%
    16:00 +25°C° 0.3 mm 1 mps 716 mmHg 64%
    17:00 +23°C° 1.4 mm 2 mps 715 mmHg 70%
    18:00 +21°C° 1.4 mm 2 mps 715 mmHg 77%
    19:00 +20°C° 1.4 mm 3 mps 715 mmHg 83%
    20:00 +19°C° 0.2 mm 3 mps 714 mmHg 83%
    21:00 +18°C° 0.2 mm 4 mps 714 mmHg 84%
    22:00 +16°C° 0.2 mm 5 mps 714 mmHg 84%
    23:00 +16°C° 0.4 mm 5 mps 714 mmHg 84%

    25 July, Tuesday

    Time Temperature Precipitation Wind Pressure Humidity
    00:00 +15°C° 0.4 mm 5 mps 715 mmHg 84%
    01:00 +15°C° 0.4 mm 6 mps 715 mmHg 84%
    02:00 +15°C° 0.1 mm 5 mps 715 mmHg 83%
    03:00 +15°C° 0.1 mm 5 mps 714 mmHg 82%
    04:00 +14°C° 0.1 mm 5 mps 714 mmHg 82%
    05:00 +15°C° 0 mm 5 mps 714 mmHg 79%
    06:00 +15°C° 0 mm 5 mps 714 mmHg 76%
    07:00 +15°C° 0 mm 6 mps 714 mmHg 74%
    08:00 +16°C° 0 mm 6 mps 714 mmHg 70%
    09:00 +16°C° 0 mm 6 mps 715 mmHg 66%
    10:00 +17°C° 0 mm 6 mps 715 mmHg 62%
    11:00 +17°C° 0.1 mm 5 mps 715 mmHg 64%
    12:00 +16°C° 0.1 mm 5 mps 715 mmHg 67%
    13:00 +17°C° 0.1 mm 4 mps 715 mmHg 69%
    14:00 +18°C° 0 mm 4 mps 715 mmHg 64%
    15:00 +19°C° 0 mm 4 mps 715 mmHg 59%
    16:00 +20°C° 0 mm 4 mps 715 mmHg 54%
    17:00 +19°C° 0 mm 4 mps 715 mmHg 58%
    18:00 +18°C° 0 mm 3 mps 715 mmHg 62%
    19:00 +17°C° 0 mm 3 mps 715 mmHg 66%
    20:00 +16°C° 0 mm 3 mps 715 mmHg 70%
    21:00 +14°C° 0 mm 3 mps 715 mmHg 75%
    22:00 +13°C° 0 mm 3 mps 715 mmHg 79%
    23:00 +13°C° 0 mm 2 mps 715 mmHg 80%

    26 July, Wednesday

    Time Temperature Precipitation Wind Pressure Humidity
    00:00 +13°C° 0 mm 2 mps 715 mmHg 82%
    01:00 +13°C° 0 mm 2 mps 715 mmHg 83%
    02:00 +12°C° 0 mm 2 mps 715 mmHg 84%
    03:00 +12°C° 0 mm 2 mps 715 mmHg 85%
    04:00 +12°C° 0 mm 2 mps 715 mmHg 85%
    05:00 +13°C° 0 mm 2 mps 715 mmHg 79%
    06:00 +15°C° 0 mm 2 mps 716 mmHg 72%
    07:00 +16°C° 0 mm 2 mps 716 mmHg 65%
    08:00 +18°C° 0 mm 2 mps 716 mmHg 59%
    09:00 +20°C° 0 mm 2 mps 716 mmHg 52%
    10:00 +23°C° 0 mm 2 mps 717 mmHg 46%
    11:00 +23°C° 0 mm 2 mps 717 mmHg 45%
    12:00 +24°C° 0 mm 2 mps 716 mmHg 44%
    13:00 +24°C° 0 mm 2 mps 716 mmHg 43%
    14:00 +24°C° 0 mm 2 mps 716 mmHg 44%
    15:00 +24°C° 0 mm 2 mps 716 mmHg 45%
    16:00 +24°C° 0 mm 2 mps 716 mmHg 46%
    17:00 +23°C° 0.1 mm 2 mps 716 mmHg 52%
    18:00 +20°C° 0.1 mm 2 mps 716 mmHg 57%
    19:00 +19°C° 0.1 mm 3 mps 717 mmHg 63%
    20:00 +18°C° 0.1 mm 3 mps 717 mmHg 66%
    21:00 +17°C° 0.1 mm 3 mps 717 mmHg 68%
    22:00 +16°C° 0.1 mm 3 mps 718 mmHg 71%
    23:00 +16°C° 0 mm 3 mps 718 mmHg 73%

    27 July, Thursday

    Time Temperature Precipitation Wind Pressure Humidity
    00:00 +15°C° 0 mm 2 mps 718 mmHg 75%
    01:00 +14°C° 0 mm 2 mps 717 mmHg 77%
    02:00 +14°C° 0 mm 2 mps 718 mmHg 78%
    03:00 +14°C° 0 mm 2 mps 718 mmHg 78%
    04:00 +14°C° 0 mm 2 mps 718 mmHg 79%
    05:00 +15°C° 0.3 mm 2 mps 718 mmHg 79%
    06:00 +15°C° 0.3 mm 2 mps 718 mmHg 78%
    07:00 +16°C° 0.3 mm 2 mps 719 mmHg 78%
    08:00 +16°C° 0.4 mm 2 mps 719 mmHg 79%
    09:00 +16°C° 0.4 mm 2 mps 719 mmHg 79%
    10:00 +17°C° 0.4 mm 3 mps 720 mmHg 80%
    11:00 +17°C° 0.2 mm 3 mps 720 mmHg 78%
    12:00 +18°C° 0.2 mm 3 mps 720 mmHg 77%
    13:00 +18°C° 0.2 mm 3 mps 720 mmHg 76%
    14:00 +20°C° 0 mm 3 mps 720 mmHg 69%
    15:00 +21°C° 0 mm 3 mps 720 mmHg 63%
    16:00 +22°C° 0 mm 4 mps 721 mmHg 56%
    17:00 +21°C° 0 mm 3 mps 721 mmHg 61%
    18:00 +20°C° 0 mm 3 mps 721 mmHg 66%
    19:00 +19°C° 0 mm 2 mps 721 mmHg 70%
    20:00 +18°C° 0 mm 2 mps 721 mmHg 75%
    21:00 +17°C° 0 mm 2 mps 721 mmHg 79%
    22:00 +15°C° 0 mm 2 mps 722 mmHg 84%
    23:00 +15°C° 0 mm 2 mps 722 mmHg 84%
    Show more